[[{"header":{"parameterUnit":"m.s-1","parameterCategory":1,"la1":30.2991,"la2":30.254,"lo1":-89.0895,"lo2":-89.0444,"dy":0.0017,"dx":0.0017,"nx":28,"ny":28,"refTime":"2025-11-06T09:00:00:Z","depth":0,"parameterNumber":2,"parameterNumberName":"U-component_of_WINDS"},"data":[0,0,0,0,0,0,0,0,0,0,0,0,0,0,0,0,0,0,0,0,0,0,0,0,0,0,0,0,0,0,0,0,0,0,0,0,0,0,0,0,0,0,0,0,0,0,0,0,0,0,0,0,0,0,0,0,0,0,-1.5609,-1.5609,0,-1.5586,-1.5585,-1.5585,-1.5493,-1.5491,-1.5489,-1.5487,-1.5467,-1.5468,-1.547,0,0,0,0,0,0,0,0,0,0,0,0,0,-1.5577,-1.5578,-1.5609,-1.5609,-1.5608,-1.5586,-1.5585,-1.5585,-1.5494,-1.5491,-1.5489,-1.5486,-1.5467,-1.5468,-1.547,0,0,0,0,0,0,0,0,0,0,0,0,0,-1.5577,-1.5579,-1.5609,-1.556,-1.5555,-1.5586,-1.5585,-1.5585,-1.5494,-1.5491,-1.5488,-1.5485,-1.5466,-1.5468,-1.547,-1.5547,0,0,-1.5477,-1.5478,0,0,0,0,0,0,0,0,-1.5577,-1.5578,-1.5567,-1.5563,-1.5558,-1.5539,-1.5567,-1.5573,-1.5495,-1.5518,-1.5487,-1.5483,-1.5494,-1.5494,-1.5496,-1.5546,-1.5546,-1.5477,-1.5478,-1.5479,-1.548,0,0,0,0,0,0,0,-1.5577,-1.5578,-1.56,-1.5567,-1.5562,-1.554,-1.5537,-1.5568,-1.5524,-1.5515,-1.5509,-1.5507,-1.5491,-1.5494,-1.5495,-1.5545,-1.5477,-1.5479,-1.548,-1.5481,-1.5659,-1.5663,0,0,0,0,0,0,-1.5583,-1.5579,-1.56,-1.5599,-1.556,-1.5543,-1.5539,-1.5549,-1.5523,-1.5516,-1.551,-1.5503,-1.5492,-1.5493,-1.5494,-1.5584,-1.5479,-1.5481,-1.5483,-1.5656,-1.566,-1.5664,0,0,0,0,0,0,-1.5583,-1.5586,-1.5601,-1.5587,-1.5587,-1.5547,-1.5558,-1.555,-1.5553,-1.5519,-1.5511,-1.5521,-1.549,-1.5491,-1.5535,-1.5582,-1.5482,-1.5484,-1.5652,-1.5657,-1.5662,-1.5764,0,0,0,0,0,0,-1.5583,-1.5587,-1.5615,-1.5588,-1.5589,-1.5642,-1.5561,-1.5552,-1.5557,-1.5548,-1.5528,-1.5522,-1.5487,-1.5532,-1.5537,-1.5583,-1.5486,-1.5648,-1.5654,-1.566,-1.5756,-1.5772,-1.5786,0,0,0,0,0,-1.5582,-1.5645,-1.5616,-1.562,-1.5623,-1.5645,-1.5645,-1.5603,-1.5561,-1.559,-1.5568,-1.5522,-1.5576,-1.5538,-1.5542,-1.559,-1.5644,-1.5652,-1.566,-1.575,-1.5769,-1.5785,0,0,0,0,0,0,-1.5678,-1.564,-1.5609,-1.5665,-1.5659,-1.5629,-1.5664,-1.5625,-1.5631,-1.5623,-1.5572,-1.5568,-1.562,-1.5609,-1.5567,-1.5664,-1.5603,-1.5612,-1.5669,-1.5687,-1.5702,-1.5704,-1.5488,0,0,0,0,0,-1.5706,-1.5726,-1.5692,-1.5745,-1.5743,-1.5705,-1.5713,-1.5681,-1.5673,-1.567,-1.5652,-1.5647,-1.5662,-1.5674,-1.5686,-1.5754,-1.5749,-1.5789,-1.5804,-1.5816,-1.5825,-1.5861,-1.5879,-1.5689,-1.5689,-1.5689,0,0,-1.5764,-1.5745,-1.5761,-1.5764,-1.5755,-1.5779,-1.5703,-1.573,-1.5748,-1.5675,-1.5715,-1.5702,-1.5693,-1.5749,-1.5773,-1.5742,-1.5876,-1.5826,-1.5836,-1.5838,-1.5871,-1.5889,-1.5905,-1.5694,-1.5694,-1.5693,0,0,-1.5881,-1.5869,-1.5912,-1.5905,-1.5893,-1.5867,-1.5877,-1.5854,-1.5842,-1.5881,-1.5827,-1.5848,-1.5875,-1.5872,-1.5874,-1.5991,-1.595,-1.5996,-1.6073,-1.6109,-1.6124,-1.6137,-1.6181,-1.6197,-1.6005,-1.6005,-1.6005,0,-1.5955,-1.5987,-1.5939,-1.5971,-1.5974,-1.5908,-1.5953,-1.5949,-1.5942,-1.5947,-1.5911,-1.5945,-1.5934,-1.599,-1.6019,-1.6022,-1.6034,-1.5999,-1.6126,-1.6138,-1.615,-1.6191,-1.6207,-1.6011,-1.601,-1.601,-1.6009,0,-1.6079,-1.6102,-1.6139,-1.6133,-1.614,-1.6178,-1.6138,-1.6152,-1.612,-1.6098,-1.614,-1.6125,-1.6134,-1.6144,-1.6113,-1.6196,-1.6177,-1.6134,-1.6072,-1.6175,-1.6212,-1.6227,-1.6019,-1.6017,-1.6015,-1.6014,0,0,-1.6257,-1.6225,-1.6239,-1.6237,-1.6219,-1.6236,-1.6272,-1.628,-1.6293,-1.6291,-1.632,-1.6346,-1.6306,-1.6309,-1.6277,-1.6308,-1.6404,-1.6262,-1.6261,-1.629,-1.6497,-1.653,-1.6549,-1.6376,-1.6379,-1.6381,-1.6498,0,-1.637,-1.6428,-1.6387,-1.6453,-1.6474,-1.6412,-1.6443,-1.6437,-1.6417,-1.6434,-1.6413,-1.6432,-1.6378,-1.6379,-1.6407,-1.6387,-1.6445,-1.6377,-1.6406,-1.6407,-1.6411,-1.6568,-1.6603,-1.6714,-1.6512,-1.6514,-1.6516,0,-1.651,-1.6513,-1.6581,-1.656,-1.6567,-1.6596,-1.6601,-1.6617,-1.6608,-1.6592,-1.6595,-1.6555,-1.659,-1.6528,-1.6576,-1.6531,-1.654,-1.6532,-1.6535,-1.6538,-1.6469,-1.6576,-1.6748,-1.6765,-1.6539,-1.6537,-1.6535,0,-1.6636,-1.6657,-1.67,-1.67,-1.6676,-1.6698,-1.6689,-1.6677,-1.6685,-1.6689,-1.6694,-1.6703,-1.6708,-1.6716,-1.6681,-1.6638,-1.6735,-1.6669,-1.6724,-1.6725,-1.6748,-1.6747,-1.6925,-1.6751,-1.6751,-1.6751,-1.675,0,-1.6767,-1.6812,-1.6757,-1.6784,-1.6832,-1.6785,-1.6834,-1.6819,-1.6809,-1.6834,-1.678,-1.6804,-1.6755,-1.6774,-1.6747,-1.6792,-1.6794,-1.6784,-1.6776,-1.6789,-1.6791,-1.6796,-1.6788,-1.6755,-1.6754,-1.6753,-1.6752,0,-1.6916,-1.6881,-1.6924,-1.6898,-1.6892,-1.6929,-1.6907,-1.6932,-1.6909,-1.694,-1.6945,-1.6909,-1.6929,-1.6894,-1.691,-1.6891,-1.6955,-1.6935,-1.6958,-1.6953,-1.701,-1.7006,-1.7199,-1.7223,-1.7032,-1.7034,-1.7036,0,-1.7003,-1.7036,-1.7013,-1.7024,-1.7018,-1.7038,-1.7046,-1.7001,-1.7011,-1.7005,-1.7031,-1.7046,-1.7056,-1.7092,-1.7068,-1.7081,-1.7061,-1.7128,-1.7063,-1.7076,-1.7064,-1.7064,-1.7068,-1.7142,-1.7144,-1.7146,-1.7148,0,-1.7162,-1.7143,-1.7155,-1.7163,-1.7173,-1.7176,-1.7176,-1.7189,-1.7142,-1.7156,-1.7176,-1.7184,-1.72,-1.7217,-1.7224,-1.7216,-1.7175,-1.7168,-1.7182,-1.7197,-1.7209,-1.7205,-1.6997,-1.7164,-1.7163,-1.7161,-1.716,-1.716,-1.7283,-1.731,-1.7298,-1.7315,-1.731,-1.7311,-1.7333,-1.7313,-1.7328,-1.7337,-1.731,-1.7336,-1.7328,-1.7333,-1.7329,-1.735,-1.7321,-1.734,-1.7346,-1.7352,-1.7362,-1.7205,-1.7351,-1.7351,-1.735,-1.735,-1.7349,0,-1.7441,-1.7431,-1.7446,-1.7447,-1.746,-1.7419,-1.7417,-1.7431,-1.7455,-1.745,-1.7461,-1.7485,-1.7501,-1.7478,-1.7491,-1.7512,-1.7494,-1.7517,-1.7516,-1.7516,-1.7386,-1.7374,-1.7532,-1.7532,-1.7532,-1.7532,-1.7532,-1.7532,-1.7525,-1.7568,-1.7548,-1.759,-1.7578,-1.7603,-1.7606,-1.7608,-1.7604,-1.7632,-1.7645,-1.763,-1.7619,-1.763,-1.7644,-1.7637,-1.7645,-1.7675,-1.7662,-1.7542,-1.7524,-1.7507,-1.7496,-1.7677,-1.7677,-1.779,-1.7791,-1.7792]},{"header":{"parameterUnit":"m.s-1","parameterCategory":1,"la1":30.2991,"la2":30.254,"lo1":-89.0895,"lo2":-89.0444,"dy":0.0017,"dx":0.0017,"nx":28,"ny":28,"refTime":"2025-11-06T09:00:00:Z","depth":0,"parameterNumber":3,"parameterNumberName":"V-component_of_WINDS"},"data":[0,0,0,0,0,0,0,0,0,0,0,0,0,0,0,0,0,0,0,0,0,0,0,0,0,0,0,0,0,0,0,0,0,0,0,0,0,0,0,0,0,0,0,0,0,0,0,0,0,0,0,0,0,0,0,0,0,0,-1.6454,-1.6454,0,-1.645,-1.645,-1.645,-1.641,-1.6409,-1.6408,-1.6407,-1.6402,-1.6403,-1.6404,0,0,0,0,0,0,0,0,0,0,0,0,0,-1.6425,-1.6426,-1.6454,-1.6454,-1.6454,-1.645,-1.645,-1.645,-1.641,-1.6409,-1.6407,-1.6406,-1.6402,-1.6403,-1.6404,0,0,0,0,0,0,0,0,0,0,0,0,0,-1.6431,-1.6426,-1.6454,-1.6433,-1.6431,-1.645,-1.645,-1.645,-1.641,-1.6409,-1.6407,-1.6406,-1.6402,-1.6403,-1.6404,-1.6442,0,0,-1.6408,-1.6409,0,0,0,0,0,0,0,0,-1.6431,-1.6432,-1.6436,-1.6435,-1.6432,-1.6429,-1.6438,-1.6447,-1.641,-1.6418,-1.6407,-1.6405,-1.6412,-1.6413,-1.6415,-1.6442,-1.6442,-1.6408,-1.6409,-1.6409,-1.641,0,0,0,0,0,0,0,-1.6431,-1.6432,-1.6452,-1.6436,-1.6434,-1.6424,-1.6423,-1.644,-1.6424,-1.6417,-1.6414,-1.6415,-1.6411,-1.6414,-1.6415,-1.6442,-1.6408,-1.6409,-1.641,-1.641,-1.65,-1.6502,0,0,0,0,0,0,-1.6433,-1.6432,-1.6452,-1.6452,-1.6428,-1.6426,-1.6425,-1.6431,-1.6423,-1.6421,-1.6416,-1.6413,-1.6413,-1.6413,-1.6415,-1.6459,-1.6409,-1.6411,-1.6411,-1.6498,-1.65,-1.6502,0,0,0,0,0,0,-1.6433,-1.6435,-1.6452,-1.6441,-1.6443,-1.6428,-1.6436,-1.6432,-1.6435,-1.6422,-1.6419,-1.6422,-1.6412,-1.6413,-1.6436,-1.6458,-1.6411,-1.6412,-1.6497,-1.6499,-1.6501,-1.6548,0,0,0,0,0,0,-1.6432,-1.6435,-1.645,-1.6442,-1.6444,-1.6474,-1.6437,-1.6433,-1.6438,-1.6433,-1.6427,-1.6425,-1.641,-1.6434,-1.6437,-1.6459,-1.6413,-1.6494,-1.6498,-1.6501,-1.6544,-1.6552,-1.6558,0,0,0,0,0,-1.6431,-1.6463,-1.6451,-1.6453,-1.6461,-1.6475,-1.6476,-1.6459,-1.644,-1.6454,-1.6446,-1.6425,-1.6455,-1.6437,-1.644,-1.6463,-1.6493,-1.6497,-1.65,-1.6541,-1.655,-1.6558,0,0,0,0,0,0,-1.6473,-1.6461,-1.6448,-1.6478,-1.6478,-1.6468,-1.6486,-1.6469,-1.6475,-1.647,-1.6449,-1.6448,-1.6474,-1.6471,-1.645,-1.6499,-1.6471,-1.6475,-1.6501,-1.6509,-1.6516,-1.6516,-1.6414,0,0,0,0,0,-1.6486,-1.6499,-1.6487,-1.6515,-1.6516,-1.6501,-1.6507,-1.6494,-1.6493,-1.6492,-1.6486,-1.6486,-1.6495,-1.6502,-1.651,-1.6544,-1.6542,-1.6561,-1.6567,-1.6573,-1.6577,-1.6595,-1.6604,-1.6514,-1.6514,-1.6514,0,0,-1.6512,-1.6507,-1.6517,-1.6523,-1.6522,-1.6536,-1.6501,-1.6517,-1.6527,-1.6495,-1.6516,-1.6512,-1.651,-1.6539,-1.6551,-1.6536,-1.6602,-1.6578,-1.6582,-1.6583,-1.66,-1.6609,-1.6616,-1.6517,-1.6516,-1.6516,0,0,-1.6567,-1.6565,-1.6588,-1.6587,-1.6586,-1.6576,-1.6582,-1.6575,-1.6571,-1.6592,-1.6568,-1.658,-1.6596,-1.6596,-1.6599,-1.6655,-1.6636,-1.6658,-1.6693,-1.6711,-1.6718,-1.6725,-1.6745,-1.6753,-1.6662,-1.6662,-1.6662,0,-1.66,-1.662,-1.6602,-1.6619,-1.6623,-1.6595,-1.6618,-1.6618,-1.662,-1.6623,-1.6606,-1.6627,-1.6624,-1.6653,-1.6667,-1.6669,-1.6675,-1.6658,-1.6719,-1.6725,-1.673,-1.675,-1.6757,-1.6665,-1.6664,-1.6664,-1.6664,0,-1.6661,-1.6675,-1.6694,-1.6696,-1.6702,-1.6722,-1.6707,-1.6715,-1.6702,-1.6694,-1.6716,-1.6711,-1.6718,-1.6724,-1.6711,-1.6751,-1.6742,-1.6723,-1.6694,-1.6742,-1.676,-1.6767,-1.6669,-1.6668,-1.6667,-1.6666,0,0,-1.6742,-1.6735,-1.6742,-1.6743,-1.6739,-1.675,-1.6769,-1.6776,-1.6784,-1.6786,-1.6801,-1.6816,-1.6799,-1.6801,-1.6788,-1.6804,-1.6849,-1.6782,-1.6782,-1.6795,-1.6894,-1.6909,-1.6917,-1.6837,-1.6838,-1.6839,-1.6894,0,-1.6796,-1.6828,-1.6813,-1.6847,-1.686,-1.6834,-1.6851,-1.685,-1.6844,-1.6854,-1.6846,-1.6857,-1.6832,-1.6834,-1.6848,-1.684,-1.6868,-1.6836,-1.6851,-1.6852,-1.6853,-1.6927,-1.6942,-1.6995,-1.6901,-1.6902,-1.6903,0,-1.6862,-1.6868,-1.6904,-1.6899,-1.6904,-1.6919,-1.6925,-1.6934,-1.6934,-1.6927,-1.6931,-1.6914,-1.6933,-1.6904,-1.6929,-1.6907,-1.6913,-1.691,-1.6911,-1.6912,-1.6881,-1.693,-1.7011,-1.7019,-1.6913,-1.6913,-1.6912,0,-1.6919,-1.6935,-1.6959,-1.696,-1.6955,-1.6966,-1.6964,-1.6962,-1.6968,-1.6973,-1.6976,-1.6983,-1.6987,-1.6992,-1.6978,-1.6958,-1.7005,-1.6975,-1.7001,-1.7001,-1.7012,-1.7012,-1.7095,-1.7015,-1.7015,-1.7015,-1.7015,0,-1.698,-1.7004,-1.6984,-1.6999,-1.7024,-1.7006,-1.7031,-1.7027,-1.7025,-1.7038,-1.7016,-1.7029,-1.7009,-1.702,-1.7008,-1.7031,-1.7033,-1.7029,-1.7026,-1.7031,-1.7032,-1.7035,-1.7031,-1.7017,-1.7016,-1.7016,-1.7016,0,-1.7048,-1.7035,-1.706,-1.7053,-1.7052,-1.7071,-1.7065,-1.7078,-1.707,-1.7087,-1.709,-1.7077,-1.7089,-1.7075,-1.7085,-1.7078,-1.7109,-1.71,-1.711,-1.7107,-1.7134,-1.7132,-1.7223,-1.7234,-1.7146,-1.7147,-1.7148,0,-1.7088,-1.7105,-1.7101,-1.7108,-1.7108,-1.712,-1.7126,-1.7109,-1.7116,-1.7117,-1.713,-1.714,-1.7147,-1.7167,-1.7159,-1.7167,-1.7158,-1.7189,-1.7159,-1.7165,-1.7159,-1.7159,-1.7161,-1.7196,-1.7197,-1.7198,-1.7198,0,-1.7161,-1.7155,-1.7164,-1.7171,-1.7179,-1.7184,-1.7187,-1.7195,-1.7177,-1.7185,-1.7198,-1.7203,-1.7214,-1.7225,-1.7231,-1.7228,-1.7211,-1.7208,-1.7214,-1.722,-1.7225,-1.7224,-1.7127,-1.7206,-1.7205,-1.7205,-1.7204,-1.7204,-1.7216,-1.7231,-1.723,-1.7242,-1.7242,-1.7246,-1.7258,-1.7252,-1.7262,-1.727,-1.7259,-1.7274,-1.7274,-1.728,-1.728,-1.7291,-1.7278,-1.7287,-1.729,-1.7293,-1.7297,-1.7223,-1.7292,-1.7292,-1.7292,-1.7292,-1.7291,0,-1.7289,-1.7287,-1.7298,-1.7304,-1.7313,-1.7295,-1.7298,-1.7307,-1.7321,-1.7322,-1.733,-1.7344,-1.7354,-1.7347,-1.7355,-1.7366,-1.7358,-1.7369,-1.7368,-1.7368,-1.7308,-1.7302,-1.7375,-1.7375,-1.7375,-1.7375,-1.7375,-1.7375,-1.7328,-1.7352,-1.7345,-1.7369,-1.7367,-1.7383,-1.7386,-1.7389,-1.739,-1.7407,-1.7416,-1.7411,-1.7408,-1.7417,-1.7425,-1.7423,-1.7427,-1.7441,-1.7436,-1.738,-1.7372,-1.7364,-1.7358,-1.7442,-1.7442,-1.7495,-1.7495,-1.7496]}]]